Regional Weather Roundup
Issued by NWS

Home | Current Version | Previous Version | Graphics & Text | Print | Product List | Glossary On
Versions: 1 2 3 4 5 6 7 8 9 10 11 12 13 14 15 16 17 18 19 20 21 22 23 24 25 26 27 28 29 30 31 32 33 34 35 36 37 38 39 40 41 42 43 44 45 46 47 48 49 50
000
ASUS43 KBIS 291702
RWRND

NORTH DAKOTA REGIONAL WEATHER ROUNDUP
NATIONAL WEATHER SERVICE BISMARCK ND
1200 PM CDT MON JUN 29 2015

NOTE: "FAIR" INDICATES FEW OR NO CLOUDS BELOW 12,000 FEET WITH NO
SIGNIFICANT WEATHER AND/OR OBSTRUCTIONS TO VISIBILITY.


NDZ001>003-009>011-017-291800-
NORTHWEST NORTH DAKOTA

CITY           SKY/WX    TMP DP  RH WIND       PRES   REMARKS
WILLISTON      SUNNY     88  54  31 VRB7      29.98F
MINOT          SUNNY     84  60  44 NW12      29.95S
MINOT AFB      SUNNY     86  59  39 NW10      29.93F
$$

NDZ018>021-031>035-040>046-291800-
SOUTHWEST NORTH DAKOTA

CITY           SKY/WX    TMP DP  RH WIND       PRES   REMARKS
BISMARCK       SUNNY     85  58  39 NW12      29.97F
DICKINSON      MOSUNNY   84  60  44 W5        30.02S
GARRISON         N/A     85  60  42 NW8       29.97F
HETTINGER ARPT SUNNY     83  59  44 W3        30.05S
$$

NDZ004>008-012>016-024-026-027-054-291800-
NORTHEAST NORTH DAKOTA

CITY           SKY/WX    TMP DP  RH WIND       PRES   REMARKS
GRAND FORKS    CLOUDY    73  62  68 N12       29.85R
GRND FRKS AFB  SUNNY     73  62  69 N8        29.87R
DEVILS LAKE    SUNNY     73  61  64 N10       29.92R
$$

NDZ022-023-025-028>030-036>039-047>053-291800-
SOUTHEAST NORTH DAKOTA

CITY           SKY/WX    TMP DP  RH WIND       PRES   REMARKS
FARGO          SUNNY     76  63  64 NW10      29.85R
JAMESTOWN      MOSUNNY   79  61  53 NW12      29.91S
$$




USA.gov is the U.S. government's official web portal to all federal, state and local government web resources and services.